Wind_Speed
10 11 11 10 10 10 10 10 10 10 10 11 11 11 11 10 10 10 11 11 12 11 11 10 11 10 10 10 10 10 10 10 11 11 11 11 11 11 10 10 10 10 10
11 11 11 11 11 11 10 11 11 11 12 12 12 12 11 12 11 12 12 12 12 12 11 11 11 10 11 11 11 11 11 11 11 12 12 11 10 11 10 10 10 10 10
12 11 11 11 12 12 12 12 12 13 13 13 13 13 12 12 12 13 13 13 13 12 11 12 12 11 11 11 11 11 12 12 12 12 13 12 11 12 12 12 11 11 11
12 12 12 12 12 12 12 12 13 13 13 14 13 13 13 13 13 13 14 14 13 13 12 12 12 12 11 11 12 12 12 13 13 13 13 13 12 13 12 13 13 12 13
13 12 12 13 13 13 13 13 14 14 14 14 14 14 14 14 14 14 14 14 13 12 12 12 12 12 12 12 12 12 13 14 14 13 14 13 13 14 13 13 13 13 13
15 14 13 14 14 14 14 14 15 15 15 14 14 14 14 14 15 15 15 15 14 13 12 13 13 13 12 12 13 13 13 14 14 13 14 14 14 14 14 14 14 14 14
15 14 15 15 15 15 14 14 15 15 15 15 15 15 15 15 15 15 15 15 14 13 13 13 13 13 13 13 14 14 13 14 14 14 14 15 15 15 15 15 15 15 16
15 15 15 16 16 15 15 15 15 15 15 15 15 15 15 16 16 16 15 15 15 14 14 14 14 14 14 14 14 14 15 14 14 14 14 15 15 16 15 15 16 16 16
15 16 16 16 17 17 16 16 16 15 15 15 15 15 15 16 16 15 15 15 15 15 15 15 15 15 15 15 15 15 15 15 15 15 15 15 16 16 17 17 17 17 16
16 16 16 16 17 17 17 17 17 16 16 16 16 16 16 16 17 16 16 16 17 17 16 17 16 16 16 16 17 16 16 16 16 17 17 17 17 18 19 19 19 20 20
17 17 18 18 18 18 18 18 18 17 17 17 17 18 18 17 18 18 18 18 18 18 18 18 18 18 18 18 18 19 19 19 19 19 19 19 19 20 21 21 21 21 21
16 18 20 20 20 20 19 18 18 18 17 18 19 19 19 19 19 19 20 20 19 19 19 19 20 20 20 21 21 21 21 21 21 21 21 21 21 21 22 22 23 23 23
19 19 20 21 21 21 21 20 20 19 18 19 19 20 20 20 20 21 21 21 21 21 21 21 21 21 22 22 22 22 23 23 23 23 23 23 23 23 23 23 22 22 23
21 21 21 21 20 21 22 22 21 20 20 20 20 20 21 21 21 22 22 23 23 22 22 22 22 23 23 23 23 24 24 24 24 24 24 24 24 24 23 23 24 24 24
23 23 24 24 22 22 22 22 22 21 21 21 21 21 21 22 22 22 23 23 23 23 23 23 23 24 24 24 24 24 25 25 25 26 26 25 25 25 25 25 25 25 25
24 24 24 25 24 23 22 22 22 21 22 22 22 22 23 23 23 23 23 23 24 24 24 24 24 24 25 25 25 26 26 26 26 27 27 26 25 26 26 26 26 26 26
25 25 25 25 23 23 23 22 23 22 22 23 23 23 22 22 22 23 23 23 24 24 24 24 25 25 26 26 26 26 27 27 27 27 27 27 26 27 27 27 28 27 27
24 24 25 25 23 23 23 23 23 22 22 22 23 23 23 23 23 23 23 24 24 24 24 24 25 26 27 27 27 27 27 27 27 27 27 27 27 27 28 28 29 29 28
23 24 24 23 23 23 24 24 24 23 23 23 23 24 24 23 23 23 23 23 24 24 24 24 25 25 26 26 27 27 27 27 27 27 28 28 28 28 29 29 29 30 29
24 24 23 23 24 24 24 24 25 25 24 24 24 24 24 23 23 24 24 24 25 25 25 25 25 26 26 26 26 27 27 28 28 28 29 29 29 29 29 29 29 29 29
25 25 25 24 25 26 25 25 25 26 26 25 25 25 25 25 24 25 25 25 26 26 26 26 27 27 27 26 27 27 28 29 29 29 29 29 29 29 29 29 28 28 29
25 25 26 26 27 27 28 27 27 27 26 26 26 26 26 26 26 26 26 26 27 27 28 27 27 27 27 28 28 28 29 29 29 29 29 28 28 29 29 29 29 29 30
27 27 28 28 29 29 29 28 28 27 27 28 28 28 28 28 28 27 27 28 28 28 28 27 28 28 29 29 29 30 30 29 29 29 28 28 28 29 29 29 30 30 30
29 29 30 30 30 30 30 29 27 27 28 29 29 29 29 29 29 28 28 29 28 28 29 30 30 30 30 30 30 30 30 30 29 28 28 28 28 28 29 29 29 30 30
31 31 31 31 30 30 30 30 30 28 29 30 30 31 30 30 30 30 30 29 29 30 30 31 31 32 31 31 31 30 29 29 29 29 28 28 29 29 29 29 29 29 29
32 31 30 31 31 31 31 31 31 29 30 31 31 31 31 31 32 32 31 31 31 31 31 31 32 32 32 32 31 30 29 29 29 29 29 29 29 29 29 28 28 29 29
Wind_Direction
326 324 322 320 319 320 316 318 323 326 329 331 328 325 322 320 317 316 315 312 309 308 306 301 295 292 289 287 285 285 289 292 292 292 288 287 284 284 283 279 279 277 275
316 318 316 316 317 317 315 317 320 321 323 323 322 322 321 321 320 318 315 314 310 306 305 304 302 298 292 290 288 285 288 292 293 295 298 297 287 284 289 285 283 279 277
308 310 312 312 314 315 315 317 319 320 320 320 318 317 318 320 319 317 317 316 316 311 306 303 300 300 295 292 291 291 289 292 294 295 299 301 295 291 288 286 286 285 283
304 302 303 307 309 311 313 313 314 315 316 316 314 314 315 316 317 316 316 318 316 314 310 307 301 298 298 295 293 293 292 294 295 297 298 297 294 294 292 287 285 283 282
302 295 294 297 300 305 310 311 311 312 313 314 313 313 313 315 317 317 316 318 315 311 311 311 309 302 298 295 293 292 292 294 296 295 296 297 294 293 296 292 287 283 281
300 297 294 294 295 298 303 306 308 308 309 309 311 311 312 313 315 315 313 315 313 306 307 308 308 305 304 300 292 292 293 295 296 297 296 294 295 294 293 293 291 284 280
296 295 293 293 296 297 301 305 307 306 305 305 306 308 309 311 312 312 311 312 312 305 301 305 306 303 302 302 300 295 291 291 292 295 296 294 293 292 291 292 291 286 280
290 290 289 290 294 296 297 300 302 303 303 303 305 306 307 310 312 312 311 310 312 310 305 303 305 303 301 300 299 299 300 295 291 291 293 294 293 293 293 293 292 289 284
289 289 288 291 297 298 297 297 299 300 299 299 302 305 306 307 310 311 310 310 309 312 313 305 302 301 300 299 297 298 299 299 297 292 291 291 291 291 290 291 293 292 290
289 290 294 297 299 297 296 296 297 297 297 296 297 300 303 304 305 304 305 306 306 306 308 308 304 304 302 301 301 301 300 299 298 297 297 293 289 289 288 288 289 291 290
291 290 290 293 297 297 293 293 295 295 294 293 293 295 298 299 299 299 301 302 302 302 302 304 304 301 300 301 300 299 298 297 296 296 295 294 294 290 288 287 288 288 288
286 284 286 290 293 295 296 294 295 293 292 291 290 292 295 295 295 297 298 299 299 298 298 298 300 300 298 299 298 296 295 295 295 295 295 294 294 293 291 289 288 287 286
283 282 283 285 290 291 294 295 296 294 292 289 289 290 291 292 292 294 295 296 296 296 296 296 296 296 298 300 298 295 293 293 293 293 294 293 292 292 291 290 289 289 287
278 283 284 285 286 289 292 293 294 292 292 291 289 288 289 290 290 291 293 294 296 297 296 297 296 297 298 298 298 295 293 292 292 292 293 292 292 292 291 289 287 287 287
278 281 282 283 286 289 290 290 291 291 292 293 293 291 292 290 290 291 292 293 295 296 296 297 297 297 298 297 297 296 296 294 292 291 292 290 290 291 290 289 288 287 285
278 280 281 281 283 286 286 288 288 289 291 294 295 293 293 292 290 292 293 293 294 296 297 298 299 298 298 298 297 297 296 296 294 291 290 289 289 289 289 289 288 288 286
277 278 281 282 280 282 283 284 286 288 290 292 294 295 293 292 293 292 293 293 295 295 296 298 298 298 298 297 296 296 296 295 295 293 290 287 288 288 288 288 288 288 286
273 277 279 279 280 280 282 283 284 286 289 291 293 294 295 294 293 293 293 294 295 296 297 299 300 300 299 298 297 296 296 295 294 293 293 290 288 288 288 287 285 284 283
271 276 277 278 280 280 280 281 282 284 287 289 290 292 294 294 293 293 294 295 296 297 299 300 301 302 302 301 298 296 295 295 295 294 294 292 289 289 289 288 286 284 283
275 276 278 278 278 279 280 280 282 284 286 288 289 290 292 292 292 293 294 296 298 298 298 299 300 301 302 301 300 298 297 296 296 295 295 292 290 289 288 288 286 285 283
275 276 277 276 277 279 280 280 281 283 284 285 287 288 290 291 291 293 294 295 297 298 298 299 300 301 302 301 299 298 297 295 294 293 294 292 290 288 287 287 287 286 285
274 276 275 274 274 278 280 280 280 281 282 284 285 286 288 289 290 292 293 294 295 296 298 299 299 300 300 300 300 298 297 296 294 294 293 291 291 290 289 288 287 286 286
273 273 274 275 274 276 279 280 280 280 281 283 285 286 287 288 289 291 293 294 295 296 297 297 298 299 299 300 300 298 297 297 296 296 295 294 293 291 290 289 288 286 285
272 273 274 275 274 275 278 279 279 280 281 282 283 284 286 287 289 291 292 293 294 295 297 298 299 300 300 300 299 297 296 295 295 296 295 294 294 294 293 290 288 287 285
271 272 272 274 275 276 278 279 280 279 280 282 284 285 285 286 288 289 291 291 292 294 295 297 298 299 300 299 298 297 297 296 296 297 295 294 294 293 293 291 288 288 288
273 272 272 273 274 275 277 279 280 279 280 282 284 285 285 286 287 288 288 289 291 293 294 296 298 299 300 300 297 296 296 296 297 297 296 296 294 292 292 290 289 289 289
Height
5891 5889 5888 5887 5887 5886 5885 5885 5884 5883 5882 5880 5879 5878 5876 5875 5874 5873 5872 5871 5869 5868 5867 5867 5866 5866 5865 5865 5865 5864 5864 5863 5863 5862 5862 5862 5861 5861 5861 5860 5860 5860 5861
5890 5888 5887 5886 5885 5885 5884 5883 5882 5881 5880 5879 5878 5877 5875 5874 5873 5872 5870 5869 5868 5866 5866 5865 5864 5863 5863 5863 5862 5862 5862 5861 5861 5860 5859 5859 5859 5859 5858 5858 5858 5858 5858
5888 5887 5886 5885 5884 5883 5883 5882 5881 5880 5879 5878 5876 5875 5874 5872 5871 5870 5868 5867 5866 5865 5864 5863 5862 5861 5861 5860 5860 5859 5859 5859 5858 5857 5857 5856 5856 5856 5856 5855 5855 5855 5855
5887 5885 5884 5883 5883 5882 5881 5880 5879 5878 5877 5876 5874 5873 5872 5871 5869 5868 5866 5865 5863 5862 5862 5861 5860 5859 5858 5858 5857 5857 5856 5856 5856 5855 5854 5854 5854 5853 5853 5853 5853 5853 5852
5885 5883 5882 5881 5880 5880 5879 5878 5877 5876 5875 5873 5872 5871 5870 5868 5867 5866 5864 5863 5861 5860 5859 5858 5857 5856 5856 5855 5855 5854 5854 5853 5853 5852 5852 5851 5850 5850 5850 5850 5850 5849 5849
5882 5881 5880 5878 5877 5877 5876 5876 5874 5873 5872 5871 5870 5869 5867 5866 5865 5863 5862 5861 5859 5858 5857 5856 5855 5854 5853 5853 5852 5851 5851 5850 5850 5849 5849 5848 5848 5847 5847 5847 5846 5846 5846
5880 5878 5877 5877 5876 5875 5874 5872 5871 5870 5869 5868 5867 5866 5865 5864 5862 5861 5860 5858 5856 5855 5854 5853 5852 5851 5850 5850 5849 5848 5848 5847 5846 5846 5845 5845 5844 5844 5843 5843 5843 5842 5842
5877 5876 5874 5873 5872 5872 5871 5870 5868 5867 5866 5865 5864 5863 5862 5861 5860 5858 5857 5855 5854 5853 5851 5850 5849 5848 5847 5846 5846 5845 5844 5844 5843 5842 5841 5841 5840 5840 5839 5839 5839 5838 5838
5874 5873 5870 5870 5869 5868 5868 5867 5865 5864 5863 5862 5861 5860 5859 5858 5857 5855 5854 5853 5851 5850 5849 5847 5846 5845 5844 5843 5842 5841 5840 5840 5839 5838 5838 5837 5837 5836 5835 5834 5834 5834 5833
5871 5870 5868 5867 5866 5865 5864 5863 5862 5861 5860 5859 5858 5857 5856 5854 5853 5852 5851 5850 5848 5847 5846 5844 5843 5842 5841 5840 5839 5838 5837 5836 5835 5835 5834 5833 5832 5832 5831 5830 5829 5828 5828
5868 5867 5865 5864 5863 5861 5859 5858 5857 5857 5856 5855 5854 5853 5852 5851 5850 5848 5847 5846 5844 5843 5842 5841 5840 5838 5837 5836 5835 5834 5833 5832 5831 5830 5829 5829 5828 5827 5826 5825 5824 5823 5822
5864 5863 5861 5860 5859 5857 5855 5854 5853 5853 5852 5851 5850 5849 5848 5847 5846 5844 5843 5842 5840 5839 5838 5837 5836 5834 5833 5831 5830 5829 5828 5827 5826 5826 5825 5824 5823 5822 5821 5820 5819 5818 5817
5860 5859 5856 5855 5854 5853 5851 5850 5849 5848 5847 5846 5844 5844 5843 5842 5841 5840 5839 5837 5836 5834 5833 5832 5831 5830 5829 5827 5825 5824 5823 5822 5821 5820 5819 5818 5817 5816 5815 5814 5813 5811 5810
5855 5853 5852 5850 5849 5848 5847 5845 5844 5844 5843 5841 5840 5839 5838 5838 5837 5835 5834 5833 5831 5830 5829 5827 5826 5825 5824 5822 5820 5819 5818 5817 5816 5815 5813 5812 5811 5810 5809 5807 5806 5805 5804
5849 5848 5847 5846 5845 5844 5843 5841 5840 5839 5838 5837 5835 5835 5833 5833 5831 5830 5829 5828 5826 5825 5824 5822 5821 5819 5818 5816 5815 5813 5811 5810 5809 5808 5807 5805 5804 5803 5802 5801 5799 5798 5797
5843 5842 5841 5840 5840 5839 5838 5836 5835 5834 5833 5832 5831 5830 5828 5827 5826 5825 5824 5822 5821 5820 5818 5817 5815 5813 5812 5810 5808 5807 5805 5803 5802 5801 5799 5798 5798 5796 5795 5794 5792 5791 5790
5836 5835 5835 5834 5834 5833 5832 5832 5830 5829 5828 5827 5826 5825 5823 5822 5820 5819 5818 5817 5815 5814 5812 5811 5809 5807 5805 5804 5802 5800 5798 5797 5795 5794 5792 5791 5790 5789 5788 5786 5785 5784 5782
5829 5829 5828 5828 5827 5827 5827 5826 5825 5824 5823 5822 5821 5819 5818 5816 5815 5814 5812 5811 5809 5808 5806 5804 5803 5801 5799 5797 5795 5793 5791 5790 5788 5787 5785 5784 5783 5782 5780 5779 5777 5776 5775
5822 5822 5822 5822 5822 5821 5821 5820 5819 5818 5817 5816 5815 5814 5812 5811 5809 5808 5807 5805 5804 5802 5800 5798 5796 5794 5792 5790 5788 5786 5784 5782 5781 5779 5778 5776 5775 5774 5772 5770 5769 5767 5766
5816 5816 5816 5816 5815 5815 5815 5814 5813 5812 5811 5810 5809 5808 5806 5805 5804 5802 5801 5799 5797 5795 5794 5792 5790 5788 5785 5783 5781 5779 5777 5775 5773 5771 5770 5768 5767 5765 5764 5762 5760 5759 5758
5810 5810 5810 5809 5809 5808 5808 5807 5806 5805 5805 5803 5802 5801 5800 5798 5797 5796 5794 5793 5791 5789 5787 5785 5783 5781 5778 5776 5774 5771 5769 5767 5765 5763 5761 5759 5758 5757 5755 5753 5752 5750 5749
5804 5803 5803 5802 5802 5801 5800 5800 5799 5798 5797 5796 5795 5794 5793 5791 5790 5789 5787 5786 5784 5782 5780 5778 5775 5773 5771 5769 5766 5764 5762 5759 5757 5755 5753 5751 5749 5748 5746 5744 5743 5741 5740
5796 5796 5795 5795 5794 5793 5793 5792 5791 5791 5789 5789 5788 5787 5786 5784 5783 5781 5780 5778 5777 5775 5773 5770 5767 5766 5763 5761 5758 5756 5753 5751 5749 5747 5745 5743 5741 5739 5737 5735 5734 5732 5731
5788 5787 5787 5786 5786 5785 5785 5784 5783 5782 5781 5781 5780 5779 5778 5777 5775 5774 5772 5771 5769 5767 5765 5762 5760 5758 5756 5753 5750 5747 5745 5743 5741 5739 5737 5734 5732 5730 5728 5726 5725 5723 5722
5779 5779 5778 5778 5777 5777 5777 5776 5775 5774 5773 5772 5771 5770 5769 5768 5767 5765 5764 5762 5761 5759 5757 5755 5752 5750 5748 5746 5743 5740 5737 5735 5733 5731 5729 5726 5724 5722 5720 5718 5716 5714 5712
5770 5769 5769 5769 5768 5768 5768 5767 5766 5765 5764 5764 5763 5761 5760 5759 5758 5756 5755 5753 5752 5750 5748 5746 5744 5741 5739 5737 5735 5732 5729 5727 5725 5723 5720 5718 5715 5713 5711 5709 5707 5705 5703